sat.trackr.live / text

‹ back to catalog

2025-226B

NORAD 65939 · 2025-226B

PAYLOAD ACTIVE UNKNOWN

§ Identity

Operator
Country
PRC
Launch date
2025-10-11
Launch site
YSLA
Launch vehicle
Mass (kg)
RCS (m²)

External: N2YO · Heavens-Above · Gunter

§ Orbital elements

Epoch: 2026-05-25T03:56:14.983584Z

Period
95.34 min
Inclination
97.6393°
Eccentricity
0.0018201
Mean motion
15.10318578 rev/d
Perigee alt
522.6 km
Apogee alt
547.8 km
Semi-major
6,913.4 km
B*
2.4339e-4
RAAN
223.8464°
Arg perigee
209.7995°
Mean anomaly
150.2199°
Rev number
3,410

§ Raw data

2025-226B1 65939U 25226B   26145.16406231  .00003938  00000+0  24339-3 0  99962 65939  97.6393 223.8464 0018201 209.7995 150.2199 15.10318578 34107

JSON: /api/v1/satellites/65939 · /tle

For live sub-satellite position, see the globe view (requires WebGL).

§ Visibility from observer

Set your observer location to see the next 7 days of passes ≥ 10°. The values pass through the URL so the page stays shareable.

No JS? Fill the form by hand. The geolocation button needs JavaScript.